User: anonymous   Login
Location: Voyageurs National Park
(48.5020°N, 92.9292°W)
Time: 09:00:36
(UTC-05:00)
Language:

Terra - Orbit

View from above orbital plane
View from above orbital plane
View from above satellite
View from above satellite

Ground track
Ground track

The orbit data is extracted from the following two-line orbital elements,

1 25994U 99068A   16269.20926124  .00000581  00000-0  13890-3 0  9999
2 25994  98.2040 342.0679 0001122  94.2641 265.8681 14.57112660892083
Epoch (UTC): 25 September 2016 05:01:20
Eccentricity: 0.0001122
inclination: 98.2040°
perigee height: 702 km
apogee height: 703 km
right ascension of ascending node: 342.0679°
argument of perigee: 94.2641°
revolutions per day: 14.57112660
mean anomaly at epoch: 265.8681°
orbit number at epoch: 89208

The dashed part of the orbit path shows where the satellite is in the earth's shadow,  

DLR